FLOCK 3S 1

导读 | 星芒AI

FLOCK 3S 1 是由美国公司 Planet Labs 运营的 Dove 卫星之一,属于其 Flock 3S 系列。该卫星是一颗小型地球观测卫星,主要用于获取高分辨率的多光谱影像,支持环境监测、农业管理、灾害评估等多种应用。FLOCK 3S 1 采用标准化设计,便于快速制造和发射,提升了星座的灵活性和覆盖能力。该卫星于 2016 年发射,是 Planet 全球卫星星座的重要组成部分,助力实现每日全球影像覆盖的目标。

基本信息
目录编号:
43769
目录名称:
FLOCK 3S 1
国际标识:
2018-099M
轨道中心:
EARTH
卫星名称:
FLOCK 3S 1
卫星全名:
--
卫星状态:
已陨落 最后检测时间 2025-06-19
发射日期:
2018-12-03 UTC
国别 :
美国 (US)
星等 :
--
轨道信息
数据来源 国际轨道数据
星历时间: 2025-06-15T09:11:10+0800
轨道信息已过期184天
半长轴: 6536.384km
偏心率: 0.001832
轨道倾角: 97.406°
近地点辐角 249.994°
升交点赤经 235.260°
平近点角 109.939°
近地点: 146.274km
远地点: 170.224km
周期: 87.653分钟
每日圈数: 16.428444
详细信息
使用方式:
暂无